Stations météo

réclame
Mon MeteoGroup
Brest, France (7110): Température de l'air & dewpoint: 15.06.2018 12:00:00 - 21.06.2018 12:00:00 (CEST)Brest, France (7110): Température de l'air 5cm: 15.06.2018 12:00:00 - 21.06.2018 12:00:00 (CEST)Brest, France (7110): Température de l'air -20cm & Température de l'air -100cm: 15.06.2018 12:00:00 - 21.06.2018 12:00:00 (CEST)Brest, France (7110): Vitesse du vent & gusts: 15.06.2018 12:00:00 - 21.06.2018 12:00:00 (CEST)Brest, France (7110): Direction du vent: 15.06.2018 12:00:00 - 21.06.2018 12:00:00 (CEST)Brest, France (7110): reduced air pressure: 15.06.2018 12:00:00 - 21.06.2018 12:00:00 (CEST)Brest, France (7110): visibility: 15.06.2018 12:00:00 - 21.06.2018 12:00:00 (CEST)Brest, France (7110): Ensoleillement: 15.06.2018 12:00:00 - 21.06.2018 12:00:00 (CEST)Brest, France (7110): Quantités de précipitations: 15.06.2018 12:00:00 - 21.06.2018 12:00:00 (CEST)
Date & Time tt [°C] td [°C] tt 5cm [°C] tt -20cm [°C] tt -100cm [°C] ff [km/h] ff [knt] fx [km/h] fx [knt] dd ppp [hPa] vv [km] sd [min] rr [mm]
21.06.2018 12:00:00 16,1 7,6 17,6 16,8 14,8 26 14 48 26 NNE 1026,6 12 60 0,0
21.06.2018 11:00:00 15,6 7,1 15,9 16,9 14,7 26 14 50 27 NE 1026,8 17 60 0,0
21.06.2018 10:00:00 15,1 7,6 14,2 17,0 14,7 31 17 50 27 NNE 1026,4 15 60 0,0
21.06.2018 09:00:00 14,2 8,8 12,7 17,0 14,7 24 13 45 24 NNE 1026,2 20 60 0,0
21.06.2018 08:00:00 13,2 9,4 11,4 17,1 14,7 21 12 41 22 NNE 1025,6 24 60 0,0
21.06.2018 07:00:00 12,2 9,6 11,2 17,2 14,8 19 11 37 20 NNE 1025,3 22 14 0,0
21.06.2018 06:00:00 12,0 9,6 11,2 17,2 14,7 18 10 37 20 NNE 1024,8 51 0 0,0
21.06.2018 05:00:00 12,4 11,6 12,0 17,3 14,7 19 10 32 17 NNE 1024,4 41 0 0,0
21.06.2018 04:00:00 13,4 13,1 13,5 17,3 14,7 19 10 32 17 NNE 1024,2 25 0 0,0
21.06.2018 03:00:00 14,1 13,9 14,3 17,4 14,7 12 6 22 12 N 1024,1 42 0 0,0
21.06.2018 02:00:00 14,1 14,1 14,6 17,4 14,7 12 6 22 12 N 1024,3 30 0 0,0
21.06.2018 01:00:00 14,3 14,3 15,1 17,4 14,7 15 8 31 17 N 1024,3 6 0 0,2
21.06.2018 00:00:00 15,0 15,0 15,7 17,5 14,7 16 9 25 13 N 1024,1 1,9 0 0,0
20.06.2018 23:00:00 14,6 14,6 15,6 17,4 14,7 14 7 25 13 N 1024,2 2,1 0 0,0
20.06.2018 22:00:00 14,4 14,2 15,7 17,4 14,7 10 5 27 15 N 1023,2 1,4 3 0,0
20.06.2018 21:00:00 17,9 14,4 18,4 17,3 14,7 15 8 23 12 N 1022,4 25 60 0,0
20.06.2018 20:00:00 19,2 14,9 20,6 17,2 14,7 16 8 26 14 N 1022,2 18 60 0,0
20.06.2018 19:00:00 19,5 15,2 22,2 17,2 14,7 17 9 24 13 NNE 1022,2 19 60 0,0
20.06.2018 18:00:00 19,4 15,1 23,9 17,1 14,7 16 9 29 15 N 1022,2 17 60 0,0
20.06.2018 17:00:00 22,5 15,8 28,8 16,9 14,7 15 8 23 12 N 1022,0 22 60 0,0
20.06.2018 16:00:00 23,6 17,8 30,7 16,8 14,7 10 5 26 14 NNW 1022,0 18 60 0,0
20.06.2018 15:00:00 23,6 18,5 29,8 16,7 14,7 11 6 21 12 N 1022,3 13 60 0,0
20.06.2018 14:00:00 22,7 18,5 25,2 16,7 14,7 8 4 16 9 NW 1022,4 18 53 0,0
20.06.2018 13:00:00 20,4 19,6 22,8 16,6 14,7 2 1 14 8 NNE 1022,8 16 52 0,0
20.06.2018 12:00:00 18,3 18,3 19,8 16,7 14,7 4 2 11 6 NNE 1023,0 18 5 0,0
20.06.2018 11:00:00 16,4 16,4 18,1 16,7 14,7 7 4 13 7 NE 1023,2 3,2 0 0,0
20.06.2018 10:00:00 15,8 15,8 17,5 16,7 14,7 6 3 11 6 NNW 1023,3 0,3 0 0,0
20.06.2018 09:00:00 15,4 15,4 16,0 16,7 14,7 4 2 7 4 WNW 1023,2 0,3 0 0,0
20.06.2018 08:00:00 14,8 14,8 15,3 16,8 14,7 0 0 5 3 N 1023,0 0,2 0 0,0
20.06.2018 07:00:00 14,4 14,4 15,2 16,8 14,7 4 2 8 5 NNW 1023,0 0,1 0 0,2
20.06.2018 06:00:00 14,6 14,6 15,1 16,8 14,7 6 4 11 6 ESE 1022,8 0,2 0 0,0
20.06.2018 05:00:00 14,5 14,5 15,1 16,8 14,7 6 4 11 6 ENE 1023,2 0,2 0 0,0
20.06.2018 04:00:00 14,6 14,6 15,3 16,9 14,7 7 4 14 7 ENE 1023,3 0,2 0 0,0
20.06.2018 03:00:00 14,8 14,8 15,2 16,9 14,7 7 4 14 8 ENE 1023,5 0,4 0 0,0
20.06.2018 02:00:00 14,7 14,7 15,5 16,9 14,7 10 5 16 9 ENE 1023,9 0,3 0 0,0
20.06.2018 01:00:00 15,0 15,0 15,5 16,9 14,6 10 5 17 9 NE 1024,4 0,7 0 0,0
20.06.2018 00:00:00 15,1 15,1 15,7 16,9 14,7 9 5 16 8 NNE 1024,9 1,2 0 0,0
19.06.2018 23:00:00 15,7 15,2 16,3 16,9 14,7 11 6 17 9 NNE 1024,8 16 0 0,0
19.06.2018 22:00:00 16,3 15,3 16,6 16,8 14,7 10 6 16 9 NNE 1024,4 36 1 0,0
19.06.2018 21:00:00 18,4 15,6 19,2 16,8 14,6 11 6 17 9 NNE 1024,3 34 5 0,0
19.06.2018 20:00:00 19,6 16,1 20,2 16,7 14,7 9 5 16 8 N 1024,3 30 23 0,0
19.06.2018 19:00:00 21,6 16,5 23,2 16,6 14,6 9 5 14 8 NNW 1024,6 37 29 0,0
19.06.2018 18:00:00 22,6 16,6 23,4 16,5 14,6 4 2 14 7 NE 1025,1 39 24 0,0
19.06.2018 17:00:00 21,2 15,5 24,2 16,5 14,6 6 3 16 9 W 1025,6 20 26 0,0
19.06.2018 16:00:00 20,5 16,5 23,0 16,4 14,6 8 4 15 8 SW 1026,0 20 0 0,0
19.06.2018 15:00:00 19,2 16,8 21,8 16,4 14,6 9 5 19 10 SW 1026,3 16 0 0,0
19.06.2018 14:00:00 19,0 16,8 20,6 16,4 14,6 10 5 14 8 SSW 1026,5 14 0 0,0
19.06.2018 13:00:00 18,1 16,4 19,5 16,3 14,6 8 5 13 7 SSW 1026,8 28 0 0,0
19.06.2018 12:00:00 17,7 16,4 18,8 16,3 14,6 4 2 10 5 S 1026,7 19 0 0,0
19.06.2018 11:00:00 17,1 16,3 18,3 16,4 14,6 4 2 9 5 SW 1026,9 36 0 0,0
19.06.2018 10:00:00 16,3 16,3 17,1 16,4 14,6 5 3 8 4 WSW 1027,0 36 0 0,0
19.06.2018 09:00:00 16,1 16,1 16,5 16,4 14,6 4 2 6 4 S 1026,9 10 0 0,0
19.06.2018 08:00:00 15,7 15,7 16,0 16,4 14,6 4 2 7 4 SW 1026,8 20 0 0,0
19.06.2018 07:00:00 15,4 15,4 15,7 16,4 14,6 5 3 8 4 SW 1026,5 19 0 0,0
19.06.2018 06:00:00 15,2 15,2 15,7 16,5 14,6 2 1 8 4 SW 1026,4 3,6 0 0,0
19.06.2018 05:00:00 15,2 15,2 15,7 16,5 14,6 5 3 11 6 WSW 1026,3 5 0 0,2
19.06.2018 04:00:00 15,3 15,3 15,6 16,5 14,6 7 4 11 6 W 1026,3 3,1 0 0,0
19.06.2018 03:00:00 15,1 15,1 15,5 16,5 14,6 7 4 13 7 WSW 1026,7 6 0 0,0
19.06.2018 02:00:00 14,9 14,9 15,5 16,5 14,6 10 5 16 8 SW 1026,8 4,3 0 0,2
19.06.2018 01:00:00 14,8 14,8 15,5 16,5 14,6 10 5 16 8 WSW 1027,0 5 0 0,0
19.06.2018 00:00:00 14,9 14,9 15,6 16,5 14,6 10 5 16 8 WSW 1027,2 5 0 0,0
18.06.2018 23:00:00 15,0 15,0 15,7 16,5 14,6 7 4 19 10 W 1027,2 2,1 0 0,0
18.06.2018 22:00:00 15,5 15,5 16,4 16,5 14,6 12 7 20 11 WSW 1026,6 4,3 0 0,0
18.06.2018 21:00:00 15,8 15,8 17,2 16,5 14,6 12 6 22 12 WSW 1026,3 4,0 0 0,0
18.06.2018 20:00:00 16,2 15,9 17,8 16,4 14,6 14 8 23 13 WSW 1026,1 4,3 0 0,0
18.06.2018 19:00:00 16,5 15,9 18,9 16,3 14,6 17 9 29 16 SW 1026,1 7 0 0,0
18.06.2018 18:00:00 17,4 15,4 20,2 16,3 14,6 21 11 29 15 SW 1025,9 45 0 0,0
18.06.2018 17:00:00 17,2 15,5 19,3 16,2 14,6 18 10 27 14 SW 1026,0 29 0 0,0
18.06.2018 16:00:00 17,0 15,7 19,9 16,2 14,6 16 9 26 14 WSW 1025,9 19 0 0,0
18.06.2018 15:00:00 18,0 15,8 21,5 16,1 14,6 17 9 25 14 SW 1025,6 20 3 0,0
18.06.2018 14:00:00 18,5 15,2 20,9 16,0 14,6 10 6 23 12 W 1025,5 19 4 0,0
18.06.2018 13:00:00 16,8 15,1 20,7 16,0 14,6 10 5 23 12 WNW 1025,8 35 0 0,0
18.06.2018 12:00:00 17,0 14,6 18,9 16,0 14,6 13 7 25 14 NW 1025,4 20 0 0,0
18.06.2018 11:00:00 - - - - - - - - - - - - - -
18.06.2018 10:00:00 15,4 13,8 16,9 16,0 14,6 14 7 24 13 WNW 1024,8 20 0 0,0
18.06.2018 09:00:00 14,6 14,1 15,4 16,0 14,6 11 6 20 11 NW 1024,2 36 0 0,0
18.06.2018 08:00:00 14,1 14,1 14,5 16,1 14,6 14 7 25 13 WNW 1023,7 12 0 0,0
18.06.2018 07:00:00 13,9 13,9 14,3 16,1 14,6 9 5 19 11 W 1023,2 7 0 0,2
18.06.2018 06:00:00 13,8 13,8 14,2 16,1 14,6 8 5 16 9 WSW 1022,9 9 0 0,0
18.06.2018 05:00:00 13,9 13,7 14,3 16,1 14,6 10 5 22 12 W 1022,6 11 0 0,0
18.06.2018 04:00:00 14,0 14,0 14,4 16,1 14,6 11 6 22 12 W 1022,6 15 0 0,0
18.06.2018 03:00:00 14,1 14,1 14,6 16,2 14,6 11 6 19 10 W 1022,7 10 0 0,0
18.06.2018 02:00:00 14,1 14,1 15,0 16,2 14,6 15 8 27 15 WNW 1022,4 5 0 0,0
18.06.2018 01:00:00 14,8 14,8 15,2 16,2 14,6 11 6 18 10 WSW 1022,0 2,5 0 0,0
18.06.2018 00:00:00 14,8 14,8 15,2 16,2 14,6 11 6 16 9 WSW 1022,2 4,9 0 0,0
17.06.2018 23:00:00 14,8 14,8 15,5 16,2 14,6 7 4 25 14 W 1021,9 4,9 0 0,0
17.06.2018 22:00:00 15,0 15,0 15,7 16,1 14,6 13 7 29 16 W 1021,4 4,5 0 0,0
17.06.2018 21:00:00 15,3 15,3 16,4 16,1 14,6 16 9 29 16 W 1021,2 2,9 0 0,2
17.06.2018 20:00:00 15,5 15,5 17,0 16,1 14,6 18 10 30 16 WSW 1020,6 3,7 0 0,0
17.06.2018 19:00:00 15,8 15,8 17,4 16,1 14,6 21 11 34 18 WSW 1020,4 4,2 0 0,2
17.06.2018 18:00:00 15,6 15,6 17,4 16,0 14,6 21 12 35 19 WSW 1020,5 1,7 0 0,0
17.06.2018 17:00:00 15,5 15,5 17,8 16,0 14,6 22 12 45 24 WSW 1020,5 2,0 0 0,0
17.06.2018 16:00:00 15,4 15,4 17,1 16,0 14,6 26 14 39 21 SW 1020,2 2,5 0 0,2
17.06.2018 15:00:00 14,8 14,6 17,2 16,0 14,6 27 15 48 26 SSW 1020,3 3,2 0 0,4
17.06.2018 14:00:00 14,5 14,3 16,8 15,9 14,6 29 15 42 23 SSW 1020,6 3,5 0 0,6
17.06.2018 13:00:00 14,3 13,8 16,9 15,9 14,6 26 14 41 22 SSW 1020,7 3,3 0 0,4
17.06.2018 12:00:00 14,4 13,1 16,9 15,9 14,6 26 14 45 25 SW 1020,7 8 0 0,0
17.06.2018 11:00:00 15,2 11,4 17,1 15,9 14,6 25 13 41 22 SW 1020,7 20 0 0,0
17.06.2018 10:00:00 15,4 11,2 15,8 16,0 14,6 26 14 40 22 SW 1020,7 35 7 0,0
17.06.2018 09:00:00 14,9 10,5 13,7 16,0 14,6 23 12 35 19 SW 1020,4 44 10 0,0
17.06.2018 08:00:00 13,7 9,7 12,6 16,0 14,6 14 8 26 14 WSW 1020,4 55 0 0,0
17.06.2018 07:00:00 13,2 9,6 12,5 16,1 14,6 14 7 22 12 WSW 1020,4 58 0 0,0
17.06.2018 06:00:00 13,2 10,2 12,6 16,1 14,6 16 9 24 13 WSW 1020,2 48 0 0,0
17.06.2018 05:00:00 13,0 10,5 12,7 16,1 14,6 11 6 19 10 WSW 1020,3 45 0 0,0
17.06.2018 04:00:00 13,1 10,3 12,6 16,2 14,6 9 5 18 10 WSW 1020,5 44 0 0,0
17.06.2018 03:00:00 13,2 9,8 12,7 16,2 14,6 12 6 17 9 WSW 1020,8 55 0 0,0
17.06.2018 02:00:00 13,3 10,3 12,8 16,2 14,6 11 6 18 10 WSW 1020,7 49 0 0,0
17.06.2018 01:00:00 13,1 10,1 12,4 16,2 14,6 9 5 15 8 WSW 1020,8 50 0 0,0
17.06.2018 00:00:00 13,2 10,0 13,0 16,2 14,6 9 5 19 10 W 1020,9 46 0 0,0
16.06.2018 23:00:00 13,4 10,4 13,3 16,2 14,6 10 5 27 14 W 1020,5 43 0 0,0
16.06.2018 22:00:00 13,8 10,2 13,7 16,2 14,6 14 8 22 12 W 1020,2 53 0 0,0
16.06.2018 21:00:00 14,3 9,7 14,5 16,1 14,6 14 8 28 15 W 1019,8 58 0 0,0
16.06.2018 20:00:00 14,8 9,2 16,2 16,1 14,6 17 9 31 17 WNW 1019,7 53 1 0,0
16.06.2018 19:00:00 15,3 9,2 17,9 16,0 14,6 15 8 30 16 NW 1019,2 44 5 0,0
16.06.2018 18:00:00 16,1 9,7 19,5 16,0 14,6 18 10 36 20 W 1019,0 35 5 0,0
16.06.2018 17:00:00 16,4 10,7 19,6 15,9 14,6 22 12 35 19 WNW 1018,9 19 7 0,0
16.06.2018 16:00:00 16,4 12,0 17,7 15,9 14,6 19 10 32 18 WNW 1018,3 18 3 0,0
16.06.2018 15:00:00 14,4 13,9 16,1 15,9 14,6 14 7 31 17 WNW 1018,2 11 0 0,2
16.06.2018 14:00:00 14,4 14,2 16,1 15,9 14,6 18 10 38 21 WSW 1018,0 7 0 0,4
16.06.2018 13:00:00 13,9 13,7 16,1 15,9 14,6 23 13 41 22 SSW 1018,0 7 0 0,8
16.06.2018 12:00:00 14,0 13,5 16,6 15,9 14,6 27 15 41 22 SW 1017,8 3,5 0 0,2
16.06.2018 11:00:00 13,9 12,5 15,4 15,9 14,6 22 12 40 22 SW 1017,7 5 0 0,0
16.06.2018 10:00:00 13,9 12,1 14,6 15,9 14,6 27 14 43 23 SW 1017,5 13 0 0,0
16.06.2018 09:00:00 13,4 12,9 13,8 16,0 14,6 16 9 33 18 SW 1017,3 11 0 1,0
16.06.2018 08:00:00 14,0 11,2 13,0 16,0 14,6 22 12 33 18 SW 1017,3 19 0 0,0
16.06.2018 07:00:00 13,7 10,9 12,7 16,1 14,6 13 7 30 16 SSW 1017,0 59 0 0,0
16.06.2018 06:00:00 13,5 10,8 11,9 16,1 14,6 18 10 28 15 SW 1017,2 55 0 0,0
16.06.2018 05:00:00 13,1 10,3 11,3 16,2 14,6 13 7 20 11 SW 1017,5 49 0 0,0
16.06.2018 04:00:00 12,7 10,2 10,7 16,2 14,6 11 6 18 10 SW 1018,2 60 0 0,0
16.06.2018 03:00:00 12,1 11,2 9,7 16,3 14,6 6 4 14 8 SW 1018,6 50 0 0,0
16.06.2018 02:00:00 11,6 9,5 10,1 16,4 14,5 9 5 19 11 WSW 1018,8 51 0 0,0
16.06.2018 01:00:00 11,9 10,3 9,1 16,4 14,5 8 5 11 6 S 1018,5 50 0 0,0
16.06.2018 00:00:00 11,3 9,2 9,6 16,5 14,6 7 4 13 7 WSW 1019,5 57 0 0,0
15.06.2018 23:00:00 11,0 8,0 10,1 16,4 14,6 6 4 11 6 WSW 1019,5 18 0 0,0
15.06.2018 22:00:00 12,9 8,2 11,6 16,4 14,6 7 4 18 10 W 1019,2 60 37 0,0
15.06.2018 21:00:00 15,6 8,6 15,6 16,3 14,6 10 6 24 13 W 1019,5 46 60 0,0
15.06.2018 20:00:00 17,1 8,5 18,8 16,3 14,6 16 9 26 14 WNW 1019,6 30 48 0,0
15.06.2018 19:00:00 16,8 9,7 19,7 16,2 14,5 14 7 22 12 WNW 1019,5 40 16 0,0
15.06.2018 18:00:00 16,4 9,6 20,4 16,1 14,5 10 5 26 14 W 1020,0 31 15 0,0
15.06.2018 17:00:00 17,1 9,3 21,4 16,1 14,5 16 8 25 13 WNW 1020,2 40 0 0,0
15.06.2018 16:00:00 17,8 9,2 21,7 16,0 14,5 12 7 21 12 WNW 1020,4 10 0 0,0
15.06.2018 15:00:00 17,9 8,5 22,9 15,9 14,5 13 7 23 12 NW 1020,3 44 3 0,0
15.06.2018 14:00:00 17,7 6,8 21,3 15,9 14,5 9 5 23 13 NW 1020,2 39 11 0,0
15.06.2018 13:00:00 16,6 7,0 19,3 15,9 14,5 16 8 26 14 NW 1020,5 48 0 0,0
15.06.2018 12:00:00 16,1 8,3 18,4 15,9 14,5 14 7 24 13 NNW 1020,3 49 3 0,0

tt = Température de l'air
td = dewpoint
tt 5cm = Température de l'air 5cm
tt -20cm = Température de l'air -20cm
tt -100cm = Température de l'air -100cm
ff = Vitesse du vent
fx = gusts
dd = Direction du vent
ppp = reduced air pressure
vv = visibility
sd = Ensoleillement
rr = Quantités de précipitations

stations d'obs. à proximité